Tracking 29892 objects as of 21-Nov-2024
HD Live streaming from Space Station
objects crossing your sky now

ONEWEB-0607

Track ONEWEB-0607 now!
10-day predictions
ONEWEB-0607 is classified as:


NORAD ID: 54671
Int'l Code: 2022-166AF
Perigee: 1,183.3 km
Apogee: 1,186.5 km
Inclination: 87.9 °
Period: 108.9 minutes
Semi major axis: 7555 km
RCS: Unknown
Launch date: December 8, 2022
Source: United Kingdom (UK)
Launch site: AIR FORCE EASTERN TEST RANGE (AFETR)
Your satellite tracking list
Your tracking list is empty




NASA's NSSDC Master Catalog

Two Line Element Set (TLE):
1 54671U 22166AF  24325.57396329 -.00000031  00000-0 -10641-3 0  9991
2 54671  87.9312 358.2345 0002086  98.9206 261.2164 13.21822599 96228
Source of the keplerian elements: AFSPC